Other Public Products
Issued by NWS Grand Forks, ND

Home | Current Version | Previous Version | Graphics & Text | Print | Product List | Glossary On
Versions: 1 2 3 4 5 6 7 8 9 10 11 12 13 14 15 16 17 18 19 20 21 22 23 24 25 26 27 28 29 30 31 32 33 34 35 36 37 38 39 40 41 42 43 44 45 46 47 48 49 50
000
FPUS83 KFGF 311331
OPUFGF
PRAIRIE TO PINES WEATHER ROUNDUP
NATIONAL WEATHER SERVICE EASTERN NORTH DAKOTA/GRAND FORKS ND
800 AM CDT TUE MAY 31 2016

 **SATELLITE DATA USED TO AUGMENT SKY COVER AT AUTOMATED STATIONS**
 *****  WEATHER ACROSS EASTERN NORTH DAKOTA  *****

CITY           SKY/WX    TMP DP  RH WIND       PRES   REMARKS
GRAND FORKS    CLOUDY    61  57  87 S13       29.68F
GRAND FORKS AF CLOUDY    61  59  94 S13       29.68S
GRAND CITY NWS   N/A     59 N/A N/A S7          N/A
BUXTON           N/A     61  61  98 S9          N/A
DEVILS LAKE    CLOUDY    58  55  90 SW15      29.66R
FARGO          CLOUDY    63  57  81 S14       29.72S
WAHPETON ARPT  CLOUDY    61  55  82 SW14      29.77S
$$

 *****  WEATHER ACROSS CENTRAL AND WESTERN NORTH DAKOTA  *****

CITY           SKY/WX    TMP DP  RH WIND       PRES   REMARKS
JAMESTOWN      CLOUDY    56  51  84 W17       29.72R
BISMARCK       SUNNY     51  45  79 W18G25    29.77F
MINOT          LGT RAIN  53  49  86 W22G31    29.66F
MINOT AFB      RAIN      52  48  87 W24G31    29.65F FOG
GARRISON         N/A     50  47  89 W16       29.71S
WILLISTON      LGT RAIN  53  50  89 W9        29.72F
DICKINSON      CLOUDY    46  44  93 W17       29.77F
HETTINGER      CLOUDY    49  44  83 W21G28    29.86F
$$

 *****  OTHER OBSERVATIONS NORTHEAST NORTH DAKOTA  *****

CITY           SKY/WX    TMP DP  RH WIND       PRES   REMARKS
WALHALLA       FAIR      59  55  88 SE12      29.66F
LANGDON        CLOUDY    57  57 100 SE12      29.64F FOG
CAVALIER       CLOUDY    61  59  94 SE9       29.67S
GRAFTON        CLOUDY    61  61 100 S13G20    29.69S
CANDO          PTSUNNY   57  57 100 SW12      29.65R
FORT TOTTEN      N/A     56  56 100 SW6       29.95S
ROLLA          PTSUNNY   52  52 100 E18G28    29.63F FOG
RUGBY          PTSUNNY   57  57 100 W17       29.62S
 ***** THE ABOVE OBSERVATIONS ARE NON NWS ARE NOT QUALITY
        CONTROLLED AND MAY MIS-REPORT RAIN FOR SNOW...
$$

 *****  OTHER OBSERVATIONS SOUTHEAST NORTH DAKOTA *****

CITY           SKY/WX    TMP DP  RH WIND       PRES   REMARKS
COOPERSTOWN    NOT AVBL
VALLEY CITY    PTSUNNY   57  57 100 W18G28    29.75R
OAKES            N/A    N/A N/A N/A MISG        N/A
GWINNER        CLOUDY    59  55  88 W17G23    29.78R
BUFFALO          N/A     61  58  90 SW13        N/A
WYNDMERE         N/A     61  57  88 W14         N/A
 ***** THE ABOVE OBSERVATIONS ARE NON NWS ARE NOT QUALITY
       CONTROLLED AND MAY MIS-REPORT RAIN FOR SNOW...
$$

  *****  WEATHER ACROSS NORTHERN MINNESOTA  *****

CITY           SKY/WX    TMP DP  RH WIND       PRES   REMARKS
FLAG ISLAND    LGT RAIN  52  48  87 E13G25    29.85F
WARROAD        LGT RAIN  52  48  87 E22       29.81F
ROSEAU         CLOUDY    54  48  82 E10G16    29.79S
HALLOCK        LGT RAIN  59  55  88 SE14G22   29.69F
THF RVR FALLS  CLOUDY    57  54  88 E16       29.74S
HALSTAD        NOT AVBL
FOSSTON        CLOUDY    57  55  94 SE12G21   29.75S
BAUDETTE       LGT RAIN  50  47  89 E21G35    29.83F FOG
WASKISH        LGT RAIN  50  48  93 E16G24    29.84F
CROOKSTON      LGT RAIN  59  59 100 S10       29.72S
$$
  *****  WEATHER ACROSS CENTRAL AND WEST MINNESOTA  *****

CITY           SKY/WX    TMP DP  RH WIND       PRES   REMARKS
BEMIDJI        CLOUDY    52  51  96 SE12G17   29.81S
PARK RAPIDS    CLOUDY    57  54  89 SE14      29.80F
WADENA         DRIZZLE   61  59  94 SE8       29.79F
DETROIT LAKES  DRIZZLE   61  59  94 S10       29.77S
MOORHEAD       CLOUDY    61  57  88 S10       29.75R
FERGUS FALLS   CLOUDY    61  61 100 W13       29.75R
ELBOW LAKE     CLOUDY    60  58  93 SW13      29.80R
MORRIS MN      PTSUNNY   63  57  82 W10       29.80R
STAPLES        LGT RAIN  61  59  94 S8        29.82R
WHEATON        CLOUDY    63  57  82 SW12      29.81R
$$
  *****  WEATHER ELSEWHERE ACROSS MINNESOTA  *****

CITY           SKY/WX    TMP DP  RH WIND       PRES   REMARKS
DULUTH         CLOUDY    47  41  80 E18G25    29.97R
INTRNTL FALLS  RAIN      49  45  86 E13G23    29.92F FOG
ELY            PTSUNNY   48  39  71 E15G21    29.98F
CLOQUET        CLOUDY    46  43  87 E16G22    29.95S
BRAINERD       RAIN      54  53  97 VRB7      29.85R FOG
HIBBING        LGT RAIN  47  43  86 SE9G20    29.93S
ALEXANDRIA     CLOUDY    61  59  93 S12       29.81F
SAINT CLOUD    LGT RAIN  63  61  93 SE14      29.85R
MINNEAPOLIS    CLOUDY    66  57  72 S12       29.87R
$$

  *****  WEATHER ACROSS SOUTH DAKOTA  *****

CITY           SKY/WX    TMP DP  RH WIND       PRES   REMARKS
SIOUX FALLS    CLOUDY    59  55  87 NW10      29.92R
BROOKINGS      CLOUDY    57  53  86 NW15G23   29.88R
WATERTOWN      CLOUDY    58  53  84 W12       29.86R
HURON          SUNNY     57  48  72 W18       29.90R
SISSETON         N/A     60  55  83 W7        29.78S
ABERDEEN       SUNNY     56  49  77 W16       29.84R
MITCHELL       SUNNY     58  51  78 NW13      29.94R
PIERRE         SUNNY     53  41  63 W15       29.93F
MOBRIDGE       SUNNY     54  43  66 W10       29.85S
RAPID CITY     SUNNY     50  37  61 S7        29.98F
$$

  *****  SOME WEATHER IN NEARBY STATES *****

CITY           SKY/WX    TMP DP  RH WIND       PRES   REMARKS
GLASGOW MT     CLOUDY    52  48  86 N20G26    29.91R
GREAT FALLS MT SUNNY     44  37  76 NW7       30.25R
CHEYENNE WY    CLOUDY    45  33  63 CALM      30.17S
SCOTTSBLUFF NE CLOUDY    50  42  74 NW9       30.12R
OMAHA NE       CLOUDY    67  59  75 CALM      29.90S
DES MOINES IA  CLOUDY    67  59  75 S10       29.93F
DAVENPORT IA   PTSUNNY   71  64  78 SE8       29.97S
CHICAGO IL     PTSUNNY   73  54  51 NE9       30.00S
EAU CLAIRE WI  CLOUDY    66  57  72 S7        29.92R
LA CROSSE WI   CLOUDY    68  59  73 S6        29.93R
$$

  *****  SOME NATIONAL WEATHER *****

CITY           SKY/WX    TMP DP  RH WIND       PRES   REMARKS
LA GUARDIA NY  PTSUNNY   75  65  71 NE8       29.96R
RALEIGH NC     CLOUDY    73  70  88 N5        29.99R
ATLANTA GA     MOSUNNY   76  63  64 E8        29.99R
NEW ORLEANS LA PTSUNNY   79  72  79 CALM      29.95S
OKLAHOMA CITY  PTSUNNY   67  62  84 N10G17    29.94F
ALBUQUERQUE NM PTSUNNY   66  38  35 SE8       30.04R
SALT LAKE CITY PTCLDY    57  41  55 SE5       30.07R
LOS ANGELES CA CLOUDY    60  56  86 CALM      29.88R FOG
BOISE ID       CLEAR     48  36  63 S3        30.11R
SEATTLE WA     PTCLDY    55  47  74 NE6       30.14F
$$

*** WEATHER ACROSS MANITOBA...SASKATCHEWAN AND ONTARIO ***
                ***ONTARIO***

CITY           SKY/WX    TMP DP  RH WIND       PRES   REMARKS
GERALDTON      MOSUNNY   45  36  70 E7        30.19R
THUNDER BAY    PTSUNNY   50  41  71 E14       30.14F
SIOUX LOOKOUT  CLOUDY    50  39  66 E7G18     30.06S
TORONTO        MOSUNNY   73  50  43 NW10G17   30.00S
BIG TROUT LK   CLOUDY    30  28  93 E6        30.30R WCI  24
PICKLE LAKE    PTSUNNY   45  34  65 E10       30.18R
DRYDEN         PTSUNNY   48  41  76 E10G21    30.00F
KENORA         LGT RAIN  48  46  93 E13G21    29.93F FOG
$$
                *** MANITOBA***

CITY           SKY/WX    TMP DP  RH WIND       PRES   REMARKS
BRANDON        LGT RAIN  52  52 100 NE23G33   29.73S
DAUPHIN        PTSUNNY   55  50  82 NE14G20   29.87F
ISLAND LAKE    NOT AVBL
PILOT MOUND      N/A     52  50  93 NE16        N/A
THE PAS        PTSUNNY   50  41  71 NE6       30.10R
THOMPSON       MOSUNNY   37  32  81 E7        30.24F
WINNIPEG       LGT RAIN  52  50  93 E24G31    29.77S FOG
LYNN LAKE      CLOUDY    43  39  87 E8        30.20S
CHURCHILL      PTSUNNY   28  25  86 SE6       30.41  WCI  22
GILLAM         MOSUNNY   30  25  80 E8        30.33F WCI  23
$$
                ***SASKATCHEWAN***

CITY           SKY/WX    TMP DP  RH WIND       PRES   REMARKS
ESTEVAN        LGT RAIN  54  52  94 N23G31    29.73S FOG
KINDERSLEY     CLOUDY    52  48  87 NW12G18   30.09S
LLOYDMINSTER   CLOUDY    50  48  93 N12       30.13S
PRINCE ALBERT  CLOUDY    52  48  87 E12       30.07R
REGINA         LGT RAIN  52  50  93 N13G22    29.92R
YORKTON        CLOUDY    50  48  93 N20G25    29.91R
N. BATTLEFORD  CLOUDY    54  48  82 NW6       30.10S   C1F1C2F2C3F3C4F4C5F5C6F6C7F7C8F8C9F9CaFaCbFbCcFcCdFdCe!



USA.gov is the U.S. government's official web portal to all federal, state and local government web resources and services.